This is the latest recevied weather packets stored in our database for station/object WC4PEM-12. If no packets are shown the sender has not sent any weather packets the latest 10 day(s).
| Time | Temp. | Humidity | Pressure | Rain* | Wind** | Luminosity | Snow |
|---|---|---|---|---|---|---|---|
| 1778094772 | 33.89° C | 41% | 1015.3 hPa | 0 mm | - | - | - |
| 1778094472 | 33.89° C | 40% | 1015.5 hPa | 0 mm | - | - | - |
| 1778094172 | 33.89° C | 42% | 1015.6 hPa | 0 mm | - | - | - |
| 1778093872 | 33.33° C | 45% | 1015.6 hPa | 0 mm | - | - | - |
| 1778093572 | 33.33° C | 43% | 1015.7 hPa | 0 mm | - | - | - |
| 1778093272 | 33.33° C | 44% | 1015.8 hPa | 0 mm | - | - | - |
| 1778092972 | 32.78° C | 45% | 1015.9 hPa | 0 mm | - | - | - |
| 1778092707 | 32.78° C | 46% | 1015.9 hPa | 0 mm | - | - | - |
| 1778092672 | 32.78° C | 46% | 1015.9 hPa | 0 mm | - | - | - |
| 1778092407 | 32.78° C | 45% | 1016 hPa | 0 mm | - | - | - |
| 1778092372 | 32.78° C | 45% | 1016 hPa | 0 mm | - | - | - |
| 1778092072 | 33.33° C | 44% | 1016 hPa | 0 mm | - | - | - |
| 1778091772 | 32.78° C | 44% | 1016.1 hPa | 0 mm | - | - | - |
| 1778091472 | 32.78° C | 44% | 1016.2 hPa | 0 mm | - | - | - |
| 1778091172 | 32.78° C | 46% | 1016.2 hPa | 0 mm | - | - | - |
| 1778090937 | 32.22° C | 46% | 1016.4 hPa | 0 mm | - | - | - |
| 1778090905 | 32.22° C | 46% | 1016.4 hPa | 0 mm | - | - | - |
| 1778090872 | 32.22° C | 46% | 1016.4 hPa | 0 mm | - | - | - |
| 1778090572 | 32.22° C | 47% | 1016.4 hPa | 0 mm | - | - | - |
| 1778090423 | 32.22° C | 47% | 1016.5 hPa | 0 mm | - | - | - |
| 1778090272 | 32.22° C | 47% | 1016.5 hPa | 0 mm | - | - | - |
| 1778090127 | 32.22° C | 46% | 1016.3 hPa | 0 mm | - | - | - |
| 1778089972 | 32.22° C | 46% | 1016.3 hPa | 0 mm | - | - | - |
| 1778089919 | 32.22° C | 46% | 1016.7 hPa | 0 mm | - | - | - |
| 1778089806 | 32.22° C | 47% | 1016.5 hPa | 0 mm | - | - | - |
* Rain latest hour (hover to see other rain measurements)
** Current wind speed in m/s (hover to see current wind gust speed)